This demonstration page uses our WeatherBlox Daily Observations layout. Learn more.

Left ArrowRight Arrow

40.92501, -98.34201

Hourly Observations for June 8, 2020

Temp ( °F °C ) Dew Point ( °F °C ) Humidity (%) Winds ( mph kmh ) Pressure ( in mb ) Visibility ( mi km ) Precip ( " mm )
12:53 am 00:53 Clear 79 26.1 62 16.7 56 56 S 26 43 29.61 1003 10 16 0.00 0.00
1:53 am 01:53 Clear 78 25.6 62 16.7 58 58 S 24 39 29.62 1003 10 16 0.00 0.00
2:53 am 02:53 Clear 76 24.4 62 16.7 62 62 S 24 39 29.62 1003 10 16 0.00 0.00
3:53 am 03:53 Clear 76 24.4 63 17.2 64 64 S 26 43 29.61 1003 10 16 0.00 0.00
4:53 am 04:53 Clear 75 23.9 63 17.2 66 66 S 21 33 29.62 1003 10 16 0.00 0.00
5:53 am 05:53 Clear 74 23.3 63 17.2 69 69 S 18 30 29.63 1003 10 16 0.00 0.00
6:53 am 06:53 Sunny 74 23.3 64 17.8 71 71 S 15 24 29.65 1004 10 16 0.00 0.00
7:53 am 07:53 Sunny 76 24.4 65 18.3 69 69 S 18 30 29.67 1005 10 16 0.00 0.00
8:53 am 08:53 Sunny 79 26.1 65 18.3 62 62 S 24 39 29.67 1005 10 16 0.00 0.00
9:53 am 09:53 Mostly Sunny 81 27.2 65 18.3 58 58 SSW 21 33 29.68 1005 10 16 0.00 0.00
10:53 am 10:53 Mostly Cloudy 85 29.4 65 18.3 51 51 SSW 21 33 29.67 1005 10 16 0.00 0.00
11:53 am 11:53 Mostly Cloudy 87 30.6 66 18.9 50 50 S 20 31 29.66 1005 10 16 0.00 0.00
12:53 pm 12:53 Mostly Cloudy 90 32.2 65 18.3 44 44 S 21 33 29.65 1004 10 16 0.00 0.00
1:53 pm 13:53 Partly Cloudy 90 32.2 64 17.8 42 42 S 16 26 29.63 1004 10 16 0.00 0.00
2:53 pm 14:53 Partly Cloudy 91 32.8 65 18.3 42 42 S 21 33 29.62 1003 10 16 0.00 0.00
3:53 pm 15:53 Sunny 93 33.9 65 18.3 40 40 S 20 31 29.59 1002 10 16 0.00 0.00
4:53 pm 16:53 Sunny 93 33.9 63 17.2 37 37 S 24 39 29.57 1001 10 16 0.00 0.00
5:53 pm 17:53 Sunny 92 33.3 64 17.8 40 40 SSE 23 37 29.56 1001 10 16 0.00 0.00
6:53 pm 18:53 Sunny 91 32.8 63 17.2 39 39 SSE 18 30 29.55 1001 10 16 0.00 0.00
7:53 pm 19:53 Sunny 88 31.1 66 18.9 48 48 SSE 21 33 29.53 1000 10 16 0.00 0.00
8:53 pm 20:53 Sunny 85 29.4 61 16.1 45 45 SSE 21 33 29.52 1000 10 16 0.00 0.00
9:53 pm 21:53 Clear 82 27.8 62 16.7 51 51 SE 16 26 29.54 1000 10 16 0.00 0.00
10:53 pm 22:53 Clear 81 27.2 62 16.7 53 53 SE 23 37 29.54 1000 10 16 0.00 0.00
11:53 pm 23:53 Clear 79 26.1 64 17.8 60 60 SSE 17 28 29.54 1000 10 16 0.00 0.00

Powered by AerisWeather